Find Starlink 35235

NORAD ID: 65682 Int'l Des: 2025-212 Owner: SPXS Country: US Constellation: starlink operational
LEOCIRCULAR

現在のビュー

3D地球を読み込み中...

About Starlink 35235

Starlink 35235 (NORAD 65682) is a starlink constellation satellite (v2 mini) launched Sep 21, 2025 by SPXS of US. It operates in LEO, CIRCULAR orbit with a mass of 575.00 kg.

Starlink 35235について

説明を読み込み中...

次回通過

Passes for default location (London). Set your location on the main map for personalized predictions.

高度履歴

Loading altitude history...

軌道要素

1 65682U 25212G 26195.93079708 .00021127 00000-0 63403-3 0 9997
2 65682 53.1581 111.8955 0001353 114.2937 245.8207 15.34431521 46716
Epoch: Jul 14, 2026 • Age: 6 hours

現在のステータス

高度 463.3 km
遠地点 / 近地点 N/A
速度 7.64 km/s
衛星直下点 23.44°N, 125.63°E
打ち上げ日 Sep 21, 2025
運用期間 0.8 years
タイプ internet

技術仕様

分類 Payload
質量 575.00 kg
乾燥質量 530.00 kg
総質量 575.00 kg
長さ 0.30 m
直径 4.10 m
スパン 29.00 m
形状 Box + pan
製造者 SPXS
バスタイプ Starlink V2MO
フェーズステータス In Orbit
所有者/国 SPXS/US

Most Searched